TimeCDT,TemperatureF,Dew PointF,Humidity,Sea Level PressureIn,VisibilityMPH,Wind Direction,Wind SpeedMPH,Gust SpeedMPH,PrecipitationIn,Events,Conditions,WindDirDegrees,DateUTC
1:15 AM,51.8,44.6,76,29.88,10.0,SSW,9.2,-,N/A,,Overcast,210,2013-10-07 06:15:00
1:35 AM,51.8,44.6,76,29.88,10.0,SW,10.4,-,N/A,,Overcast,220,2013-10-07 06:35:00
1:55 AM,51.8,44.6,76,29.89,10.0,WSW,9.2,-,N/A,,Overcast,240,2013-10-07 06:55:00
2:15 AM,53.6,44.6,72,29.89,10.0,WSW,9.2,-,N/A,,Overcast,240,2013-10-07 07:15:00
2:35 AM,53.6,44.6,72,29.89,10.0,WSW,9.2,-,N/A,,Overcast,240,2013-10-07 07:35:00
3:15 AM,53.6,44.6,72,29.89,10.0,WSW,8.1,-,N/A,,Overcast,250,2013-10-07 08:15:00
3:35 AM,53.6,44.6,72,29.88,10.0,WSW,9.2,-,N/A,,Mostly Cloudy,250,2013-10-07 08:35:00
3:55 AM,51.8,44.6,76,29.89,10.0,WSW,5.8,-,N/A,,Clear,250,2013-10-07 08:55:00
4:15 AM,50.0,44.6,82,29.90,10.0,WSW,5.8,-,N/A,,Scattered Clouds,250,2013-10-07 09:15:00
4:35 AM,50.0,44.6,82,29.91,10.0,West,5.8,-,N/A,,Clear,260,2013-10-07 09:35:00
4:55 AM,50.0,44.6,82,29.93,10.0,West,5.8,-,N/A,,Clear,270,2013-10-07 09:55:00
5:15 AM,50.0,44.6,82,29.93,10.0,West,5.8,-,N/A,,Clear,260,2013-10-07 10:15:00
5:35 AM,50.0,46.4,87,29.94,10.0,West,6.9,-,N/A,,Scattered Clouds,280,2013-10-07 10:35:00
5:55 AM,50.0,46.4,87,29.94,10.0,WNW,5.8,-,N/A,,Scattered Clouds,300,2013-10-07 10:55:00
6:15 AM,50.0,44.6,82,29.95,10.0,NW,3.5,-,N/A,,Clear,310,2013-10-07 11:15:00
6:35 AM,48.2,44.6,87,29.96,10.0,North,-9999.0,-,N/A,,Clear,0,2013-10-07 11:35:00
6:55 AM,46.4,44.6,93,29.97,10.0,North,-9999.0,-,N/A,,Clear,0,2013-10-07 11:55:00
7:15 AM,46.4,44.6,93,29.98,10.0,North,-9999.0,-,N/A,,Clear,0,2013-10-07 12:15:00
7:35 AM,46.4,44.6,93,29.99,10.0,North,-9999.0,-,N/A,,Clear,0,2013-10-07 12:35:00
7:55 AM,50.0,46.4,87,29.99,10.0,North,-9999.0,-,N/A,,Clear,0,2013-10-07 12:55:00
8:15 AM,51.8,46.4,82,30.01,10.0,North,-9999.0,-,N/A,,Clear,0,2013-10-07 13:15:00
8:35 AM,51.8,46.4,82,30.02,10.0,North,-9999.0,-,N/A,,Scattered Clouds,0,2013-10-07 13:35:00
8:55 AM,51.8,46.4,82,30.03,10.0,North,-9999.0,-,N/A,,Mostly Cloudy,0,2013-10-07 13:55:00
9:15 AM,53.6,46.4,77,30.04,10.0,WNW,9.2,-,N/A,,Mostly Cloudy,300,2013-10-07 14:15:00
9:35 AM,55.4,46.4,72,30.04,10.0,North,-9999.0,-,N/A,,Scattered Clouds,0,2013-10-07 14:35:00
9:55 AM,55.4,44.6,67,30.05,10.0,North,-9999.0,-,N/A,,Clear,0,2013-10-07 14:55:00
10:15 AM,57.2,44.6,63,30.05,10.0,North,-9999.0,-,N/A,,Scattered Clouds,0,2013-10-07 15:15:00
10:35 AM,59.0,44.6,59,30.06,10.0,North,-9999.0,-,N/A,,Mostly Cloudy,0,2013-10-07 15:35:00
10:55 AM,59.0,44.6,59,30.07,10.0,West,9.2,-,N/A,,Mostly Cloudy,280,2013-10-07 15:55:00
11:15 AM,59.0,46.4,63,30.07,10.0,NW,8.1,-,N/A,,Mostly Cloudy,320,2013-10-07 16:15:00
11:35 AM,59.0,46.4,63,30.08,10.0,North,-9999.0,-,N/A,,Mostly Cloudy,0,2013-10-07 16:35:00
11:55 AM,59.0,46.4,63,30.08,10.0,WNW,6.9,-,N/A,,Overcast,300,2013-10-07 16:55:00
12:15 PM,59.0,46.4,63,30.07,10.0,NW,11.5,16.1,N/A,,Overcast,310,2013-10-07 17:15:00
12:35 PM,59.0,46.4,63,30.08,10.0,WNW,10.4,16.1,N/A,,Overcast,300,2013-10-07 17:35:00
12:55 PM,59.0,46.4,63,30.07,10.0,NW,5.8,-,N/A,,Overcast,320,2013-10-07 17:55:00
1:15 PM,60.8,46.4,59,30.07,10.0,WNW,5.8,-,N/A,,Overcast,300,2013-10-07 18:15:00
1:35 PM,60.8,46.4,59,30.07,10.0,North,-9999.0,-,N/A,,Overcast,0,2013-10-07 18:35:00
1:55 PM,62.6,46.4,55,30.07,10.0,West,6.9,-,N/A,,Overcast,280,2013-10-07 18:55:00
2:15 PM,62.6,46.4,55,30.06,10.0,WNW,10.4,-,N/A,,Mostly Cloudy,290,2013-10-07 19:15:00
2:35 PM,62.6,46.4,55,30.06,10.0,West,6.9,-,N/A,,Scattered Clouds,270,2013-10-07 19:35:00
2:55 PM,64.4,46.4,52,30.06,10.0,North,-9999.0,-,N/A,,Scattered Clouds,0,2013-10-07 19:55:00
3:15 PM,64.4,46.4,52,30.07,10.0,North,-9999.0,-,N/A,,Scattered Clouds,0,2013-10-07 20:15:00
3:35 PM,64.4,46.4,52,30.06,10.0,North,-9999.0,-,N/A,,Clear,0,2013-10-07 20:35:00
3:55 PM,64.4,46.4,52,30.06,10.0,North,-9999.0,-,N/A,,Clear,0,2013-10-07 20:55:00
4:15 PM,64.4,44.6,49,30.06,10.0,North,-9999.0,-,N/A,,Clear,0,2013-10-07 21:15:00
4:35 PM,66.2,46.4,49,30.06,10.0,North,-9999.0,-,N/A,,Clear,0,2013-10-07 21:35:00
4:55 PM,64.4,44.6,49,30.06,10.0,North,-9999.0,-,N/A,,Clear,0,2013-10-07 21:55:00
5:15 PM,64.4,44.6,49,30.06,10.0,North,-9999.0,-,N/A,,Clear,0,2013-10-07 22:15:00
5:35 PM,64.4,44.6,49,30.07,10.0,North,-9999.0,-,N/A,,Clear,0,2013-10-07 22:35:00
5:55 PM,64.4,46.4,52,30.07,10.0,North,-9999.0,-,N/A,,Clear,0,2013-10-07 22:55:00
6:15 PM,60.8,50.0,68,30.07,10.0,North,-9999.0,-,N/A,,Clear,0,2013-10-07 23:15:00
6:35 PM,59.0,50.0,72,30.08,10.0,North,-9999.0,-,N/A,,Clear,0,2013-10-07 23:35:00
6:55 PM,55.4,50.0,82,30.08,10.0,North,-9999.0,-,N/A,,Clear,0,2013-10-07 23:55:00
7:55 PM,53.6,50.0,88,30.10,10.0,North,-9999.0,-,N/A,,Clear,0,2013-10-08 00:55:00
8:15 PM,53.6,50.0,88,30.11,10.0,North,-9999.0,-,N/A,,Clear,0,2013-10-08 01:15:00
8:35 PM,53.6,50.0,88,30.12,10.0,North,-9999.0,-,N/A,,Clear,0,2013-10-08 01:35:00
8:55 PM,51.8,48.2,88,30.13,10.0,North,-9999.0,-,N/A,,Clear,0,2013-10-08 01:55:00
9:15 PM,51.8,50.0,94,30.14,10.0,North,-9999.0,-,N/A,,Clear,0,2013-10-08 02:15:00
9:35 PM,51.8,48.2,88,30.14,10.0,North,-9999.0,-,N/A,,Clear,0,2013-10-08 02:35:00
9:55 PM,50.0,48.2,94,30.14,10.0,North,-9999.0,-,N/A,,Clear,0,2013-10-08 02:55:00
10:15 PM,50.0,48.2,94,30.15,10.0,North,-9999.0,-,N/A,,Clear,0,2013-10-08 03:15:00
10:35 PM,50.0,48.2,94,30.15,10.0,North,-9999.0,-,N/A,,Clear,0,2013-10-08 03:35:00
10:55 PM,50.0,48.2,94,30.16,10.0,North,-9999.0,-,N/A,,Clear,0,2013-10-08 03:55:00
11:15 PM,50.0,46.4,87,30.16,10.0,North,-9999.0,-,N/A,,Clear,0,2013-10-08 04:15:00
11:35 PM,50.0,46.4,87,30.16,10.0,North,-9999.0,-,N/A,,Clear,0,2013-10-08 04:35:00
11:55 PM,50.0,48.2,94,30.16,10.0,North,-9999.0,-,N/A,,Clear,0,2013-10-08 04:55:00